Location: Alfortville
(48.8058°N, 2.4204°E)
Time: 16:20:00
(UTC+00:00)

SPROUT - Visible Passes

Search period start: 20 March 2023 00:00
Search period end: 30 March 2023 00:00
Orbit: 567 x 579 km, 98.0° (Epoch: 19 March)

Date Brightness Start Highest point End Pass type
(mag) Time Alt. Az. Time Alt. Az. Time Alt. Az.
27 Mar ? 00:24:16 11° N 00:24:16 11° N 00:24:23 10° N visible
28 Mar ? 00:26:33 11° N 00:26:33 11° N 00:26:47 10° N visible
29 Mar ? 00:28:46 12° N 00:28:46 12° N 00:29:07 10° N visible
